Tracking 21992 objects as of 28-Nov-2020
HD Live streaming from Space Station
objects crossing your sky now

CE-SAT IIB

Track CE-SAT IIB now!
10-day predictions


NORAD ID: 46818
Int'l Code: 2020-077F
Perigee: 513.2 km
Apogee: 532.3 km
Inclination: 97.5 °
Period: 94.9 minutes
Semi major axis: 6893 km
RCS: Unknown
Launch date: October 28, 2020
Source: Japan (JPN)
Launch site: Rocket Lab Launch Complex (RLLC)
aabbcc
Your satellite tracking list
Your tracking list is empty




NASA's NSSDC Master Catalog

Two Line Element Set (TLE):
1 46818U 20077F   20333.81806249  .00000908  00000-0  49617-4 0  9990
2 46818  97.4969  33.9320 0013849 192.7397 302.8486 15.16779186  4686
Source of the keplerian elements: AFSPC